BREEZE-KM DEB, 41719

Orbit data source: Space-Track

BREEZE-KM DEB, 41719 is space debris in LEO originally from a launch on Tue, 31 Mar 2015 UTC launched from the Plesetsk Missile And Space Complex (PKMTR). Debris objects in space refer to the collection of defunct objects orbiting the Earth. Examples of debris include non-operational satellites, rocket bodies, and fragments generated from explosions, collisions, or faulty payload assembly.

Loading next visibility...
Identifier
41719, 2015-020G
Orbit
LEO
Country
Flag of CISCIS
Related business
Manufacturer
Khrunichev
Mission
Spacecraft
Bus & Motor
Unknown
Mass
Unknown
Launch date (UTC)
2015-03-31 (11 years ago)
Launch vehicle
Unknown
Launch site
Plesetsk Missile And Space Complex (PKMTR)
Object type
Payload
Rocket body
Debris
Shape & HBR
Unknown shape, 0.1 m
Radar Cross Section
Small (<0.1 m²)

Expand to show TLE details & history
Last TLE update: 13 hours ago

TLE from 13 hours ago
0 BREEZE-KM DEB
1 41719U 15020G   26036.74697077  .00000076  00000-0  26777-3 0  9999
2 41719  82.4949 320.2851 0222853  77.4947 285.0983 12.75184985495701
Epoch: 2026-02-05T17:55Z
TLE epoch observation values (Epoch: 2026-02-05T17:55:38.274Z)
Latitude
0.00001°
Longitude
-84.51914°
Altitude
1,322.32 km
Speed
7.215 km/s
True Right ascension
21h 21m 08s
True Declination
0° 00' 00"
Sunlit
Object was in daylight at epoch
Visualization orbit readout
Latitude
Unknown
Longitude
Unknown
Altitude
Unknown
Speed
Unknown
Apparent Right ascension
Unknown
Apparent Declination
Unknown
Sunlit
N/A
Visualization observer readout
Local Sidereal Time
08:53:57
Azimuth
Unknown
Elevation
Unknown
Doppler factor
Unknown
Orbital elements
Apogee altitude
1,530.6 km
Perigee altitude
1,185.788 km
Semi-major axis
7,736.331 km
Eccentricity
0.02229
Inclination
82.4949°
RAAN
320.2851°
Arg. of periapsis
77.4947°
True anomaly
282.61551°
Mean anomaly
285.0983°
Eccentric anomaly
283.85862°
Mean motion
3.18963 °/min
Orbital period
112.87 mins
BSTAR
0.00026777
Loading maneuver chart data...
Computing Atmospheric mass density...
Loading historical data...
Loading historical data...
Loading historical data...
Loading historical data...
Loading historical data...
Loading historical data...
Loading historical data...

Documentation

Showing up to 5 results
|